Jadwal Kapal Pelni KM Gunung Dempo 2019

Jadwal Keberangkatan Kapal KM Gunung Dempo – Kapal pelni gunung dempo adalah salah satu kapal penumpang yang sejak lama di oprasikan oleh PT. Pelni untuk rute pelayaran tujuan Tanjung Priok Jakarta, Tanjung Perak Surabaya, Makassar, Ambon, Sorong, Manokwari, Wasior, Nabire, Jayapura, bagi anda yang hendak melakukan perjalanan dengan tujuan rute kapal pelni km gunung dempo di atas tadi anda bisa menumpang atau menggunakan kapal km gunung dempo.

Untuk penyebrangan anda ke tempat tujuan anda, bagi anda yang sedang membutuhkan informasi mengenai jadwal terbaru kapal laut km gunung dempo admin akan memberikan info terbaru mengenai jadwal kapal km gunung dempo bulan ini, perlu anda ketahui untuk pemesanan tiket kapal pelni anda bisa melalui agen pelni yang tersebar di berbagai wilayah maupun kota seperti agen tiket pelni Surabaya, Makassar, Medan, Ambon, Jayapura, Jakarta dan masih banyak lainya.

Jadwal Kapal Gunung Dempo

Jadwal Kapal Pelni KM Gunung Dempo

Untuk pembelian tiket kapal pelni secara online anda bisa langsung menuju website resmi pelni.co.id, untuk pembelian tiket kapal pelni selanjutnya anda bisa melakukan melalui Indomart, Alfamart, Ata Tour, Fast Travel Dan MMBC, admin selalu mengupdate jadwal kapal pelni di setiap bulanya, bagi anda yang ingin mengetahui jadwal kapal pelni lebaran 2019 maupun harga tiket kapal pelni lebaran 2019, admin akan mengupdate jadwal kapal lebaran 2019 di info artikel selanjutnya.

Sebelum admin memberikan informasi jadwal kapal laut KM gunung dempo ada baiknya anda sedikit mengeathui informasi mengenai beberapa fasilitas yang sudah di perbaru oleh pelni guna untuk kenyamanan para penumpang kapal pelni yang hendak melakukan perjalan berlayarnya menuju pelabuhan yang mereka tuju, beberapa fasilitas pelni yang sudah di perbarui yaitu saat ini sudah ada tempat tidur yang layak bagi penumpang kapal pelni, nah untuk mengetahui detail info jadwal terbaru kapal gunung dempo anda bisa melihat tabel di bawah ini mengenai jadwal kapal gunung dempo bulan ini sebagai berikut.

Jadwal Kapal Pelni KM Gunung Dempo Terbaru

BERANGKAT DARI PELABUHANTIBA DI PELABUHANWAKTU KEBERANGKATAN KAPAL PELNI GUNUNG DEMPO
WAKTU TIBA KAPAL PELNI GUNUNG DEMPO
MAKASSARTANJUNG PERAK [SURABAYA]27-11-2018 | 17:0028-11-2018 | 16:00
TANJUNG PERAK [SURABAYA]TANJUNG PRIOK [JAKARTA]28-11-2018 | 18:0029-11-2018 | 17:00
TANJUNG PRIOK [JAKARTA]TANJUNG PERAK [SURABAYA]30-11-2018 | 08:0001-12-2018 | 08:00
TANJUNG PERAK [SURABAYA]MAKASSAR01-12-2018 | 12:0002-12-2018 | 14:00
MAKASSARSORONG02-12-2018 | 17:0004-12-2018 | 19:00
SORONGMANOKWARI04-12-2018 | 22:0005-12-2018 | 10:00
MANOKWARIWASIOR05-12-2018 | 12:0005-12-2018 | 19:00
WASIORNABIRE05-12-2018 | 21:0006-12-2018 | 03:00
NABIREJAYAPURA06-12-2018 | 05:0007-12-2018 | 03:00
JAYAPURANABIRE07-12-2018 | 11:0008-12-2018 | 09:00
NABIREWASIOR08-12-2018 | 11:0008-12-2018 | 17:00
WASIORMANOKWARI08-12-2018 | 18:0009-12-2018 | 01:00
MANOKWARISORONG09-12-2018 | 03:0009-12-2018 | 15:00
SORONGMAKASSAR09-12-2018 | 17:0011-12-2018 | 15:00
MAKASSARTANJUNG PERAK [SURABAYA]11-12-2018 | 17:0012-12-2018 | 16:00
TANJUNG PERAK [SURABAYA]TANJUNG PRIOK [JAKARTA]12-12-2018 | 18:0013-12-2018 | 17:00
TANJUNG PRIOK [JAKARTA]TANJUNG PERAK [SURABAYA]14-12-2018 | 08:0015-12-2018 | 08:00
TANJUNG PERAK [SURABAYA]MAKASSAR15-12-2018 | 12:0016-12-2018 | 14:00
MAKASSARSORONG16-12-2018 | 17:0018-12-2018 | 19:00
SORONGMANOKWARI18-12-2018 | 22:0019-12-2018 | 10:00
MANOKWARIWASIOR19-12-2018 | 12:0019-12-2018 | 19:00
WASIORNABIRE19-12-2018 | 21:0020-12-2018 | 03:00
NABIREJAYAPURA20-12-2018 | 05:0021-12-2018 | 03:00
JAYAPURANABIRE21-12-2018 | 11:0022-12-2018 | 09:00
NABIREWASIOR22-12-2018 | 11:0022-12-2018 | 17:00
WASIORMANOKWARI22-12-2018 | 18:0023-12-2018 | 01:00
MANOKWARISORONG23-12-2018 | 03:0023-12-2018 | 15:00
SORONGAMBON23-12-2018 | 17:0024-12-2018 | 13:00
AMBONMAKASSAR24-12-2018 | 15:0026-12-2018 | 02:00
MAKASSARTANJUNG PERAK [SURABAYA]26-12-2018 | 04:0027-12-2018 | 03:00
TANJUNG PERAK [SURABAYA]TANJUNG PRIOK [JAKARTA]27-12-2018 | 05:0028-12-2018 | 04:00
TANJUNG PRIOK [JAKARTA]TANJUNG PERAK [SURABAYA]28-12-2018 | 13:0029-12-2018 | 13:00
TANJUNG PERAK [SURABAYA]MAKASSAR29-12-2018 | 17:0030-12-2018 | 19:00
MAKASSARAMBON30-12-2018 | 22:0001-01-2019 | 09:00
AMBONSORONG01-01-2019 | 12:0002-01-2019 | 08:00
SORONGMANOKWARI02-01-2019 | 11:0002-01-2019 | 23:00
MANOKWARIWASIOR03-01-2019 | 01:0003-01-2019 | 08:00
WASIORNABIRE03-01-2019 | 10:0003-01-2019 | 16:00
NABIREJAYAPURA03-01-2019 | 18:0004-01-2019 | 16:00
JAYAPURANABIRE04-01-2019 | 23:0005-01-2019 | 21:00
NABIREWASIOR05-01-2019 | 23:0006-01-2019 | 05:00
WASIORMANOKWARI06-01-2019 | 06:0006-01-2019 | 13:00
MANOKWARISORONG06-01-2019 | 15:0007-01-2019 | 03:00
SORONGMAKASSAR07-01-2019 | 05:0009-01-2019 | 03:00
MAKASSARTANJUNG PERAK [SURABAYA]09-01-2019 | 05:0010-01-2019 | 04:00
TANJUNG PERAK [SURABAYA]TANJUNG PRIOK [JAKARTA]10-01-2019 | 06:0011-01-2019 | 05:00
TANJUNG PRIOK [JAKARTA]TANJUNG PERAK [SURABAYA]11-01-2019 | 15:0012-01-2019 | 15:00
TANJUNG PERAK [SURABAYA]MAKASSAR12-01-2019 | 19:0013-01-2019 | 21:00
MAKASSARSORONG13-01-2019 | 23:5916-01-2019 | 02:00
SORONGMANOKWARI16-01-2019 | 05:0016-01-2019 | 17:00
MANOKWARIWASIOR16-01-2019 | 19:0017-01-2019 | 02:00
WASIORNABIRE17-01-2019 | 04:0017-01-2019 | 10:00
NABIREJAYAPURA17-01-2019 | 12:0018-01-2019 | 10:00
JAYAPURANABIRE18-01-2019 | 17:0019-01-2019 | 15:00
NABIREWASIOR19-01-2019 | 17:0019-01-2019 | 23:00
WASIORMANOKWARI19-01-2019 | 23:5920-01-2019 | 07:00
MANOKWARISORONG20-01-2019 | 09:0020-01-2019 | 21:00
SORONGMAKASSAR20-01-2019 | 23:0022-01-2019 | 21:00
MAKASSARTANJUNG PERAK [SURABAYA]22-01-2019 | 23:0023-01-2019 | 22:00
TANJUNG PERAK [SURABAYA]TANJUNG PRIOK [JAKARTA]23-01-2019 | 23:5924-01-2019 | 23:00

Keterangan

  • Perlu anda ketahui bahwa jadwal keberangkatan kapal pelni gunung dempo ini, sewaktu-waktu bisa mengalami perubahan tanpa adanya pemberitahuan terlebih dahulu yang disebabkan banyak faktor, seperti karena keterlambatan keberangkatan dari pelabuhan sebelumnya atau disebabkan oleh penyebab lainnya.
  • Kapal pelni gunung dempo ini hanya menyediakan tiket kelas ekonomi saja, jadi anda jangan berharap untuk mencari tiket kelas 1 atau kelas 2.
  • Harga tiket kapal pelni ini dibedakan berdasarkan kelompok usia tertentu yang terbagi ke dalam 3 golongan yaitu bayi (0-23 bulan), anak (2-11 tahun) dan dewasa ( > 11 tahun).

Harga Tiket Kapal Laut Pelni KM Gunung Dempo

  1. Harga tiket Kapal Dempo Sorong Makassar >>> Rp 550.500 Rp 417.500 Rp 60.000
  2. Harga tiket Kapal Dempo Makassar Surabaya>>> Rp 268.000 Rp 206.000 Rp 32.000

Baca Juga : Jadwal Kapal Nggapulu

Informasi Lebih Lanjut Tentang  Jadwal Kapal Pelni Dan Tiket Kapal PELNI 2019 Silahkan Melalui Call Center

  • PSTN Jabodetabek: 162
  • Handphone: 021 162
  • PSTN Luar Jabodetabek: 021 21 88 7000
  • Fax: +62 21 6385 4130
  • E-mail: [email protected]

Jadwal Kapal Gunung Dempo Januari 2019 | Jadwal KM Gunung Dempo Februari 2019 | Jadwal Kapal Motor Gunung Dempo Maret 2019 | Jadwal Kapal Pelni Gunung Dempo April 2019 | Jadwal Kapal Laut Gunung Dempo Mei 2019 | Jadwal Keberangkatan Kapal Gunung Dempo Juni 2019 | Jadwal Keberangkatan KM Gunung Dempo Juli 2019 | Jadwal Keberangkatan Kapal Motor Gunung Dempo Agustus 2019 | Jadwal Keberangkatan Kapal Pelni Gunung Dempo September 2019 | Jadwal Keberangkatan Kapal Laut Gunung Dempo Oktober 2019 | Jadwal Terbaru Kapal Gunung Dempo November Tahun 2019 | Jadwal Terbaru Kapal Pelni Gunung Dempo Desember Tahun 2019 | Jadwal Kalpal Gunung Dempo Lebaran 2019 bisa memperoleh informasi yang anda cari tentang “Jadwal Terbaru Kapal Pelni 2019.

Source :

jadwal kapal gunung dempo tgl 26 2019